Terminal Aerodrome Forecast
Issued by NWS Key West, FL

Home | Current Version | Previous Version | Text Only | Print | Product List | Glossary On
Versions: 1 2 3 4 5 6 7 8 9 10 11 12 13 14 15 16 17 18 19 20 21 22 23 24 25 26 27 28 29 30 31 32 33 34 35 36 37 38 39 40 41 42 43
000
FTUS42 KKEY 242300
TAFEYW
TAF
KEYW 242329Z 2500/2524 17008KT P6SM FEW020 SCT060
     FM250400 24010G17KT 3SM SHRA SCT014 BKN022
     FM250900 28009KT 3SM SHRA SCT009 BKN020
     FM251400 35010G17KT P6SM BKN015 BKN040=

USA.gov is the U.S. government's official web portal to all federal, state and local government web resources and services.